Theta_e
302 305 309 321 321 322 320 319 316 312 310 308 307 306 306 306 304 301 299 298 295 294 294 292 291 291 290 291 290 290 288 290 289 288 289 288 286 284 285 285 286 285 284
299 302 306 309 317 319 312 310 309 306 307 307 307 306 303 301 299 297 295 294 292 291 290 289 288 288 287 288 287 286 286 287 287 284 285 285 285 284 283 283 283 284 282
295 299 303 306 307 308 309 307 305 304 303 301 301 299 298 297 296 295 293 292 290 289 288 286 286 285 284 284 284 284 284 284 284 283 282 283 283 282 281 281 281 281 282
293 295 298 300 303 304 304 303 303 304 304 301 297 296 295 294 292 291 289 287 286 286 286 286 285 284 284 283 283 283 283 282 282 282 281 281 280 281 279 278 277 278 278
291 291 291 293 296 297 297 298 299 299 295 293 291 290 290 290 289 287 286 285 284 284 283 284 284 284 286 285 283 282 282 282 281 281 279 279 278 278 277 277 277 276 276
288 288 288 288 289 290 292 289 288 288 289 289 287 287 286 288 289 288 286 284 283 282 281 282 283 283 285 286 286 286 283 281 279 279 277 276 277 277 277 276 275 273 272
286 286 285 286 285 285 286 286 285 285 286 285 285 286 286 287 288 287 286 284 283 282 281 281 281 281 281 281 284 282 281 282 281 279 277 276 276 275 274 273 272 272 271
284 284 284 284 284 284 284 284 284 285 284 284 284 285 285 286 287 286 285 283 282 282 281 281 281 280 280 279 279 278 277 278 278 278 278 277 276 275 273 273 272 271 272
283 283 284 284 284 284 283 283 283 283 283 283 284 284 284 284 286 285 283 281 280 280 281 280 280 280 281 281 278 277 276 275 278 280 280 278 278 277 275 272 268 266 264
283 283 284 284 283 282 282 282 283 283 282 283 282 283 283 283 285 284 283 281 279 280 280 279 281 280 281 280 277 277 273 272 273 274 273 273 273 273 273 271 269 265 265
283 283 283 283 282 282 282 282 282 281 281 281 280 281 282 283 284 285 284 281 280 279 278 277 279 281 281 280 278 275 273 273 272 271 270 270 270 269 269 269 269 267 265
281 281 281 281 281 281 280 280 280 280 279 279 279 279 280 281 283 285 284 283 282 279 277 277 278 281 280 279 276 276 274 271 268 267 267 266 266 266 267 267 267 267 267
280 279 279 280 280 280 279 279 279 279 278 278 278 278 278 279 281 284 284 283 281 277 277 278 280 280 278 277 275 273 270 268 266 264 264 265 265 266 266 265 266 265 265
278 278 279 279 279 279 280 280 279 278 278 278 277 277 277 276 277 278 280 279 279 278 278 275 275 273 273 271 270 269 268 267 266 264 264 264 265 263 262 264 262 262 257
278 277 277 278 278 277 277 278 278 277 279 278 277 277 276 275 276 279 278 275 273 274 268 268 268 267 266 266 266 265 265 265 263 263 261 261 261 262 262 262 261 257 254
275 275 275 275 275 275 275 275 281 281 282 282 281 278 276 279 281 281 280 279 277 275 263 263 265 265 265 264 262 262 262 261 261 261 258 258 258 259 259 259 259 254 254
273 272 272 271 271 271 271 273 273 275 283 283 282 281 280 280 282 281 280 279 278 272 264 264 264 264 262 262 261 260 259 260 260 258 258 258 259 257 255 255 257 256 255
266 268 269 268 269 268 269 267 268 268 267 268 280 280 281 282 282 282 280 276 267 264 260 260 259 259 259 259 259 257 257 256 256 256 255 252 251 251 250 251 253 251 251
267 266 267 266 265 266 265 264 264 263 265 265 266 278 275 282 281 281 279 262 261 259 257 256 257 258 258 257 256 254 253 253 253 250 249 248 249 248 248 250 252 254 254
264 267 266 266 265 265 264 264 262 262 263 266 266 269 263 268 270 262 260 260 259 258 258 258 256 256 255 254 251 250 249 249 249 248 248 248 248 248 249 248 249 251 251
269 266 267 265 266 267 267 268 266 264 264 265 268 265 273 274 270 267 261 257 259 259 257 256 255 254 252 253 250 250 248 249 247 247 246 246 246 246 247 250 250 251 250
268 267 266 267 266 266 266 266 266 266 266 266 263 264 278 266 265 263 259 258 256 256 256 256 254 254 255 255 254 253 251 247 245 245 245 246 246 247 246 247 248 250 251
267 266 265 262 265 264 264 264 264 265 265 266 266 266 268 265 261 259 257 254 255 255 254 255 256 254 252 251 250 252 253 249 248 246 249 250 249 249 247 248 249 251 251
267 266 265 263 262 263 263 263 264 265 266 266 265 263 262 260 258 257 257 257 256 255 255 256 255 255 253 251 250 250 250 249 248 250 249 248 249 250 248 250 252 253 253
265 264 264 263 263 263 262 263 264 264 261 261 259 257 258 258 257 257 258 257 256 256 256 254 251 251 251 250 249 250 251 256 254 251 248 247 251 251 253 254 254 254 253
262 262 262 261 262 263 264 263 260 260 259 258 259 260 259 259 258 257 256 257 256 255 253 251 249 249 250 250 252 254 256 260 259 257 252 253 254 254 253 254 255 255 256
Wind_Speed
8 8 8 11 15 14 11 9 8 7 9 11 12 12 13 12 11 9 9 9 12 9 7 11 11 8 5 6 5 4 5 2 2 2 2 3 4 6 6 5 5 5 5
8 8 7 6 7 11 8 8 8 8 4 6 12 14 11 6 11 13 12 10 11 12 8 12 9 7 8 6 5 4 4 3 3 2 3 3 3 6 6 7 6 6 5
7 8 5 4 3 3 7 10 13 13 12 10 6 11 10 7 7 12 13 12 10 9 8 10 10 10 8 5 5 5 4 4 4 3 2 3 3 4 4 5 8 6 5
6 7 5 4 3 2 1 5 10 13 16 17 11 9 10 12 11 8 15 13 10 10 8 8 8 8 8 6 6 6 4 4 3 2 2 2 3 3 2 4 6 5 7
4 4 5 5 5 8 8 6 3 7 8 10 15 10 9 10 10 13 11 15 14 12 10 9 10 10 12 8 5 5 5 4 2 3 2 2 1 2 5 4 4 7 3
4 3 3 5 7 9 10 12 11 8 10 12 13 14 12 6 20 19 12 11 14 13 12 10 9 8 12 15 14 15 9 5 5 2 2 3 4 3 4 4 5 4 4
3 4 4 6 8 9 11 14 13 9 12 14 12 13 13 13 18 21 17 10 12 10 11 10 8 6 7 7 14 17 14 15 12 5 6 4 3 5 5 5 6 4 4
3 4 4 7 10 10 13 14 14 12 13 11 13 13 10 11 15 22 18 12 12 10 8 9 10 7 6 7 8 9 9 9 7 5 5 6 5 5 6 4 5 7 5
4 4 4 8 10 11 13 14 14 15 13 10 9 9 9 13 19 18 12 12 13 10 7 6 7 7 12 12 8 9 8 7 8 11 14 12 12 13 10 4 4 4 2
6 5 6 8 11 12 13 12 14 14 13 9 8 6 9 9 16 17 12 8 12 8 7 6 10 9 14 11 5 6 8 5 5 6 7 9 9 9 13 8 5 4 3
8 8 9 12 12 12 12 11 13 12 11 9 9 7 7 9 9 15 14 8 9 8 6 5 5 12 13 12 12 8 6 5 7 6 6 4 5 6 5 6 7 5 3
9 10 11 11 8 9 11 9 11 12 11 9 9 7 5 6 8 9 10 11 12 7 7 5 6 12 12 13 10 13 12 9 4 4 3 4 3 5 5 4 5 5 4
11 11 10 10 9 8 9 9 9 9 8 7 6 6 5 3 4 13 15 14 15 8 5 9 15 13 13 11 13 10 6 4 3 4 4 3 4 4 4 3 3 4 5
10 7 7 9 8 6 6 6 6 6 6 5 5 5 5 3 3 3 6 7 14 9 12 7 9 9 10 9 6 5 4 3 3 4 3 3 2 1 2 4 2 5 2
6 4 5 5 7 6 3 5 5 2 4 6 6 7 8 7 4 8 9 6 5 8 8 4 3 2 3 3 3 3 3 2 3 3 3 3 3 3 3 4 2 3 2
4 2 2 3 4 4 4 5 7 9 10 9 12 8 2 6 14 13 13 13 14 16 4 3 2 2 4 3 4 3 2 2 3 3 2 2 2 3 3 3 1 0 1
4 4 3 4 3 4 4 5 6 4 7 8 12 11 10 11 15 13 12 13 17 8 2 3 3 4 3 3 3 2 2 1 2 3 3 2 2 2 2 2 3 2 3
4 5 4 4 4 4 4 4 4 3 3 2 5 7 10 15 16 16 15 10 4 1 2 3 3 4 3 3 3 2 2 1 2 3 3 1 1 1 2 2 2 2 2
4 3 3 3 2 3 3 3 2 3 3 2 3 3 2 13 13 15 17 3 3 2 2 3 3 4 3 3 3 2 2 2 2 2 0 1 1 1 2 3 3 4 5
4 7 7 5 5 5 5 5 4 3 3 5 4 5 2 4 5 2 2 3 3 3 4 5 3 3 3 3 3 2 3 2 1 1 1 1 2 2 2 3 2 4 4
5 3 5 3 4 4 5 6 5 5 5 5 6 4 12 9 7 5 3 3 4 4 4 4 4 4 3 3 3 3 2 1 1 2 2 3 2 2 2 3 4 4 4
6 6 6 7 5 5 6 4 4 4 4 4 2 2 19 2 4 5 4 4 4 4 4 5 4 3 3 3 3 3 2 3 3 2 3 2 2 3 2 3 4 4 4
5 5 5 3 4 5 4 4 4 5 5 6 7 7 6 5 4 4 5 4 4 4 3 4 4 3 2 2 2 3 3 4 4 3 3 4 3 4 3 4 4 5 5
5 6 6 5 4 4 5 5 5 6 6 6 5 4 4 4 5 5 5 5 4 4 4 3 3 4 3 3 2 3 4 4 3 4 5 4 4 4 3 4 6 8 8
5 5 5 5 5 5 5 5 5 5 4 4 4 3 4 6 6 5 5 4 4 4 4 3 3 3 3 4 4 5 6 8 6 5 4 4 7 8 7 6 8 8 9
4 4 4 4 4 5 5 4 3 4 4 4 4 5 6 6 6 7 5 6 4 4 4 2 2 3 3 4 6 7 7 8 7 7 6 6 6 7 5 8 12 8 10
Wind_Direction
312 312 309 221 205 191 200 196 178 164 159 150 142 137 135 132 122 110 102 113 105 95 84 97 94 93 86 78 51 45 53 41 143 132 121 56 61 26 7 2 5 9 358
306 303 313 314 222 192 175 157 145 126 121 145 149 140 131 119 128 118 119 114 111 108 120 100 115 120 95 91 98 97 87 46 118 115 25 32 67 23 355 359 351 1 338
322 313 316 287 347 277 196 163 143 140 131 114 111 119 117 114 133 119 121 108 113 120 129 127 127 118 109 114 103 91 75 69 44 83 57 16 10 17 350 345 337 345 344
328 326 336 10 120 115 342 149 151 153 156 146 139 137 138 123 118 110 113 114 108 93 84 87 93 95 104 105 96 89 88 79 76 96 87 46 29 344 335 336 338 347 336
329 350 349 356 53 87 75 41 7 118 114 114 113 98 102 116 121 127 124 121 113 104 96 93 86 85 90 95 108 99 107 104 93 92 78 81 26 351 4 339 319 330 342
352 30 33 53 63 80 95 83 60 66 86 100 99 104 96 93 118 117 117 114 114 116 110 98 92 89 103 99 97 91 87 93 76 52 30 40 38 16 2 355 344 357 325
37 48 59 79 76 79 86 91 94 62 78 84 79 92 96 108 112 110 111 112 107 113 114 104 94 81 73 93 96 82 67 67 75 81 84 45 52 22 359 357 353 340 302
81 88 93 97 97 94 92 92 89 91 81 72 93 84 100 110 113 111 112 104 99 93 94 103 104 121 106 105 104 91 81 74 58 70 79 77 72 58 25 21 356 322 309
105 92 120 113 110 109 103 102 97 91 85 81 75 107 114 103 122 117 112 107 105 108 102 101 117 111 101 109 114 111 95 77 64 74 80 65 56 44 36 20 13 10 338
102 97 90 103 109 103 103 102 102 96 93 93 83 76 101 110 124 129 132 124 108 113 106 94 83 92 89 87 87 104 95 73 80 82 62 56 50 38 33 29 12 27 357
96 98 103 97 94 99 101 102 102 100 102 102 101 84 95 100 130 141 143 127 129 130 115 112 102 101 101 98 90 81 96 98 74 75 76 63 54 49 38 26 22 20 358
84 84 84 90 91 94 102 98 99 104 103 100 105 95 70 79 108 133 110 113 123 120 120 106 103 121 110 101 88 93 95 91 90 88 88 66 41 36 23 12 19 10 349
84 80 76 74 85 96 109 101 106 112 115 123 124 121 113 93 102 135 130 123 118 103 103 128 125 121 111 102 102 99 84 87 95 83 84 67 45 29 21 340 351 356 348
78 92 107 103 96 97 95 94 112 120 121 127 127 132 130 105 113 127 118 111 109 112 125 98 115 125 113 97 89 95 83 85 98 94 82 64 47 19 24 10 354 356 19
93 77 88 98 109 91 69 108 117 78 158 158 167 160 159 170 175 140 128 124 122 125 97 73 94 85 105 112 96 84 100 101 86 83 67 54 40 17 15 10 4 5 36
106 88 97 106 100 109 123 109 158 164 181 182 163 159 95 142 159 154 155 147 144 137 75 123 138 158 154 147 150 130 99 95 71 83 66 59 35 18 5 353 347 356 311
144 160 138 117 127 133 108 132 117 48 138 170 162 159 157 157 158 156 156 159 162 137 113 156 158 160 161 158 142 146 141 116 117 90 83 51 28 11 17 318 318 341 331
153 156 146 133 126 142 166 147 127 132 123 29 128 147 161 163 168 171 164 139 134 27 133 138 151 165 145 148 152 156 139 100 80 71 72 58 51 91 356 329 312 270 277
154 162 150 153 132 113 94 94 103 112 149 125 30 110 165 167 178 180 162 127 162 175 128 134 154 153 151 147 145 125 119 105 93 87 98 148 315 120 268 249 277 290 281
166 164 163 161 157 160 162 155 146 155 157 176 184 182 186 110 172 127 104 139 149 146 158 151 156 141 139 139 131 115 93 82 100 187 241 254 245 216 259 282 261 272 285
177 161 161 125 161 181 182 196 186 173 181 191 207 194 186 183 186 173 149 168 164 158 151 144 150 142 133 135 129 135 138 160 207 225 235 251 255 295 237 245 263 263 262
168 172 176 186 174 179 189 169 174 185 193 201 205 214 210 163 153 158 154 154 159 148 148 140 141 147 158 160 162 149 168 221 238 241 265 258 255 262 259 263 278 271 276
165 169 171 165 174 160 161 174 175 178 178 184 179 191 212 159 148 150 149 146 139 124 118 116 127 135 137 165 166 170 193 222 219 192 239 261 261 259 236 257 263 282 275
159 164 166 171 168 172 172 180 183 185 186 183 168 158 143 133 139 143 138 133 115 111 112 116 125 150 156 186 202 216 232 236 207 225 220 233 265 272 247 253 268 270 272
158 160 165 167 172 179 171 178 181 174 148 149 147 134 127 125 122 119 118 114 115 128 137 136 143 169 202 226 244 249 246 259 246 216 201 199 244 254 257 256 265 270 268
141 143 152 151 161 171 173 161 146 148 149 138 132 136 137 128 123 125 131 138 138 126 134 145 178 211 246 260 268 271 264 267 262 239 213 220 234 249 246 253 261 259 258